New version


Hourly Weather Volgograd

Today, 24 July, Saturday

Time Temperature Precipitation Wind Pressure Humidity
00:00 +25°C° 0 mm 3 mps 747 mmHg 42%
01:00 +24°C° 0 mm 3 mps 747 mmHg 43%
02:00 +24°C° 0 mm 3 mps 747 mmHg 43%
03:00 +22°C° 0 mm 3 mps 748 mmHg 45%
04:00 +23°C° 0 mm 2 mps 748 mmHg 45%
05:00 +23°C° 0 mm 2 mps 748 mmHg 46%
06:00 +23°C° 0 mm 2 mps 748 mmHg 47%
07:00 +24°C° 0 mm 2 mps 748 mmHg 43%
08:00 +26°C° 0 mm 2 mps 749 mmHg 38%
09:00 +27°C° 0 mm 2 mps 749 mmHg 34%
10:00 +28°C° 0 mm 2 mps 749 mmHg 32%
11:00 +29°C° 0 mm 2 mps 749 mmHg 30%
12:00 +30°C° 0 mm 3 mps 749 mmHg 28%
13:00 +30°C° 0 mm 3 mps 749 mmHg 27%
14:00 +31°C° 0 mm 3 mps 749 mmHg 26%
15:00 +31°C° 0 mm 3 mps 749 mmHg 25%
16:00 +31°C° 0 mm 3 mps 749 mmHg 25%
17:00 +31°C° 0 mm 3 mps 749 mmHg 25%
18:00 +31°C° 0 mm 3 mps 749 mmHg 25%
19:00 +29°C° 0 mm 3 mps 750 mmHg 28%
20:00 +28°C° 0 mm 3 mps 750 mmHg 32%
21:00 +26°C° 0 mm 3 mps 751 mmHg 35%
22:00 +25°C° 0 mm 3 mps 751 mmHg 38%
23:00 +25°C° 0 mm 3 mps 751 mmHg 41%

Tomorrow, 25 July, Sunday

Time Temperature Precipitation Wind Pressure Humidity
00:00 +24°C° 0 mm 3 mps 751 mmHg 44%
01:00 +22°C° 0 mm 3 mps 752 mmHg 47%
02:00 +22°C° 0 mm 3 mps 752 mmHg 49%
03:00 +21°C° 0 mm 3 mps 752 mmHg 51%
04:00 +22°C° 0 mm 3 mps 753 mmHg 51%
05:00 +22°C° 0 mm 3 mps 753 mmHg 51%
06:00 +23°C° 0 mm 2 mps 753 mmHg 51%
07:00 +25°C° 0 mm 3 mps 753 mmHg 46%
08:00 +26°C° 0 mm 3 mps 754 mmHg 42%
09:00 +28°C° 0 mm 3 mps 754 mmHg 37%
10:00 +29°C° 0 mm 3 mps 754 mmHg 34%
11:00 +30°C° 0 mm 2 mps 754 mmHg 32%
12:00 +31°C° 0 mm 2 mps 754 mmHg 30%
13:00 +31°C° 0 mm 2 mps 754 mmHg 29%
14:00 +32°C° 0 mm 2 mps 754 mmHg 28%
15:00 +32°C° 0 mm 2 mps 754 mmHg 27%
16:00 +32°C° 0 mm 2 mps 754 mmHg 27%
17:00 +33°C° 0 mm 3 mps 754 mmHg 28%
18:00 +32°C° 0 mm 4 mps 754 mmHg 29%
19:00 +30°C° 0 mm 4 mps 754 mmHg 32%
20:00 +29°C° 0 mm 4 mps 754 mmHg 35%
21:00 +27°C° 0 mm 4 mps 755 mmHg 38%
22:00 +27°C° 0 mm 4 mps 755 mmHg 39%
23:00 +26°C° 0 mm 4 mps 755 mmHg 40%

Day after tomorrow, 26 July, Monday

Time Temperature Precipitation Wind Pressure Humidity
00:00 +25°C° 0 mm 4 mps 755 mmHg 41%
01:00 +25°C° 0 mm 4 mps 755 mmHg 40%
02:00 +25°C° 0 mm 4 mps 755 mmHg 39%
03:00 +25°C° 0 mm 4 mps 755 mmHg 39%
04:00 +25°C° 0 mm 4 mps 756 mmHg 40%
05:00 +25°C° 0 mm 4 mps 756 mmHg 40%
06:00 +23°C° 0 mm 4 mps 756 mmHg 41%
07:00 +26°C° 0 mm 4 mps 756 mmHg 38%
08:00 +27°C° 0 mm 4 mps 756 mmHg 35%
09:00 +28°C° 0 mm 4 mps 756 mmHg 32%
10:00 +30°C° 0 mm 4 mps 756 mmHg 30%
11:00 +32°C° 0 mm 4 mps 756 mmHg 28%
12:00 +33°C° 0 mm 3 mps 756 mmHg 26%
13:00 +34°C° 0 mm 3 mps 756 mmHg 25%
14:00 +34°C° 0 mm 3 mps 755 mmHg 24%
15:00 +35°C° 0 mm 3 mps 755 mmHg 23%
16:00 +34°C° 0 mm 4 mps 755 mmHg 24%
17:00 +33°C° 0 mm 4 mps 755 mmHg 25%
18:00 +33°C° 0 mm 5 mps 755 mmHg 26%
19:00 +32°C° 0 mm 5 mps 755 mmHg 28%
20:00 +30°C° 0 mm 5 mps 755 mmHg 30%
21:00 +28°C° 0 mm 5 mps 755 mmHg 32%
22:00 +28°C° 0 mm 5 mps 756 mmHg 33%
23:00 +27°C° 0 mm 5 mps 756 mmHg 34%

27 July, Tuesday

Time Temperature Precipitation Wind Pressure Humidity
00:00 +26°C° 0 mm 5 mps 756 mmHg 35%
01:00 +25°C° 0 mm 5 mps 756 mmHg 36%
02:00 +25°C° 0 mm 4 mps 756 mmHg 37%
03:00 +23°C° 0 mm 4 mps 756 mmHg 38%
04:00 +23°C° 0 mm 4 mps 756 mmHg 38%
05:00 +23°C° 0 mm 4 mps 756 mmHg 38%
06:00 +24°C° 0 mm 3 mps 756 mmHg 38%
07:00 +25°C° 0 mm 4 mps 756 mmHg 35%
08:00 +27°C° 0 mm 4 mps 756 mmHg 32%
09:00 +28°C° 0 mm 4 mps 756 mmHg 29%
10:00 +29°C° 0 mm 4 mps 756 mmHg 28%
11:00 +30°C° 0 mm 4 mps 756 mmHg 27%
12:00 +32°C° 0 mm 4 mps 756 mmHg 27%
13:00 +32°C° 0 mm 4 mps 755 mmHg 27%
14:00 +32°C° 0 mm 4 mps 755 mmHg 26%
15:00 +32°C° 0 mm 5 mps 755 mmHg 26%
16:00 +32°C° 0 mm 5 mps 755 mmHg 26%
17:00 +30°C° 0 mm 5 mps 755 mmHg 26%
18:00 +30°C° 0 mm 5 mps 754 mmHg 26%
19:00 +28°C° 0 mm 4 mps 755 mmHg 28%
20:00 +27°C° 0 mm 4 mps 755 mmHg 30%
21:00 +25°C° 0 mm 3 mps 755 mmHg 32%
22:00 +25°C° 0 mm 3 mps 755 mmHg 33%
23:00 +24°C° 0 mm 3 mps 755 mmHg 34%

28 July, Wednesday

Time Temperature Precipitation Wind Pressure Humidity
00:00 +23°C° 0 mm 2 mps 755 mmHg 35%
01:00 +23°C° 0 mm 2 mps 755 mmHg 36%
02:00 +23°C° 0 mm 2 mps 755 mmHg 38%
03:00 +21°C° 0 mm 2 mps 755 mmHg 39%
04:00 +21°C° 0 mm 2 mps 755 mmHg 40%
05:00 +23°C° 0 mm 2 mps 755 mmHg 40%
06:00 +23°C° 0 mm 2 mps 755 mmHg 41%
07:00 +25°C° 0 mm 2 mps 755 mmHg 37%
08:00 +27°C° 0 mm 3 mps 755 mmHg 33%
09:00 +28°C° 0 mm 3 mps 755 mmHg 29%
10:00 +29°C° 0 mm 3 mps 754 mmHg 27%
11:00 +30°C° 0 mm 3 mps 754 mmHg 26%
12:00 +31°C° 0 mm 3 mps 754 mmHg 24%
13:00 +31°C° 0 mm 3 mps 754 mmHg 23%
14:00 +33°C° 0 mm 3 mps 753 mmHg 22%
15:00 +33°C° 0 mm 3 mps 753 mmHg 22%
16:00 +33°C° 0 mm 3 mps 753 mmHg 22%
17:00 +33°C° 0 mm 3 mps 753 mmHg 22%
18:00 +31°C° 0 mm 2 mps 752 mmHg 22%
19:00 +30°C° 0 mm 2 mps 752 mmHg 24%
20:00 +29°C° 0 mm 1 mps 753 mmHg 26%
21:00 +28°C° 0 mm 1 mps 753 mmHg 28%
22:00 +28°C° 0 mm 1 mps 752 mmHg 28%
23:00 +28°C° 0 mm 1 mps 752 mmHg 28%

29 July, Thursday

Time Temperature Precipitation Wind Pressure Humidity
00:00 +27°C° 0 mm 1 mps 752 mmHg 28%
01:00 +26°C° 0 mm 1 mps 752 mmHg 31%
02:00 +26°C° 0 mm 1 mps 752 mmHg 33%
03:00 +25°C° 0 mm 1 mps 752 mmHg 36%
04:00 +25°C° 0 mm 1 mps 752 mmHg 36%
05:00 +26°C° 0 mm 1 mps 752 mmHg 36%
06:00 +26°C° 0 mm 1 mps 752 mmHg 36%
07:00 +28°C° 0 mm 1 mps 752 mmHg 33%
08:00 +29°C° 0 mm 1 mps 752 mmHg 29%
09:00 +31°C° 0 mm 2 mps 752 mmHg 25%
10:00 +32°C° 0 mm 2 mps 752 mmHg 23%
11:00 +34°C° 0 mm 2 mps 751 mmHg 22%
12:00 +34°C° 0 mm 2 mps 751 mmHg 20%
13:00 +35°C° 0 mm 3 mps 751 mmHg 20%
14:00 +35°C° 0 mm 3 mps 750 mmHg 19%
15:00 +35°C° 0 mm 3 mps 750 mmHg 19%
16:00 +35°C° 0 mm 4 mps 750 mmHg 21%
17:00 +34°C° 0 mm 4 mps 750 mmHg 23%
18:00 +33°C° 0 mm 4 mps 750 mmHg 25%
19:00 +32°C° 0 mm 4 mps 750 mmHg 29%
20:00 +29°C° 0 mm 3 mps 750 mmHg 33%
21:00 +28°C° 0 mm 3 mps 750 mmHg 37%
22:00 +28°C° 0 mm 3 mps 750 mmHg 37%
23:00 +28°C° 0 mm 3 mps 750 mmHg 37%
Show more